Year,Month,Day,Hour,Minute,Value (Times are PST for temperature in C)
2012,08,28,00,00,14.00
2012,08,28,00,01,14.00
2012,08,28,00,02,14.00
2012,08,28,00,03,13.90
2012,08,28,00,04,13.90
2012,08,28,00,05,13.90
2012,08,28,00,06,13.90
2012,08,28,00,07,13.90
2012,08,28,00,08,13.90
2012,08,28,00,09,13.80
2012,08,28,00,10,13.80
2012,08,28,00,11,13.80
2012,08,28,00,12,13.80
2012,08,28,00,13,13.80
2012,08,28,00,14,13.80
2012,08,28,00,15,13.90
2012,08,28,00,16,13.90
2012,08,28,00,17,13.90
2012,08,28,00,18,13.90
2012,08,28,00,19,13.90
2012,08,28,00,20,13.80
2012,08,28,00,21,13.80
2012,08,28,00,22,13.80
2012,08,28,00,23,13.70
2012,08,28,00,24,13.60
2012,08,28,00,25,13.50
2012,08,28,00,26,13.40
2012,08,28,00,27,13.30
2012,08,28,00,28,13.30
2012,08,28,00,29,13.20
2012,08,28,00,30,13.20
2012,08,28,00,31,13.20
2012,08,28,00,32,13.20
2012,08,28,00,33,13.20
2012,08,28,00,34,13.20
2012,08,28,00,35,13.20
2012,08,28,00,36,13.10
2012,08,28,00,37,13.10
2012,08,28,00,38,13.10
2012,08,28,00,39,13.10
2012,08,28,00,40,13.10
2012,08,28,00,41,13.10
2012,08,28,00,42,13.10
2012,08,28,00,43,13.10
2012,08,28,00,44,13.10
2012,08,28,00,45,13.10
2012,08,28,00,46,13.10
2012,08,28,00,47,13.10
2012,08,28,00,48,13.10
2012,08,28,00,49,13.10
2012,08,28,00,50,13.10
2012,08,28,00,51,13.10
2012,08,28,00,52,13.10
2012,08,28,00,53,13.10
2012,08,28,00,54,13.10
2012,08,28,00,55,13.10
2012,08,28,00,56,13.10
2012,08,28,00,57,13.10
2012,08,28,00,58,13.10
2012,08,28,00,59,13.10
2012,08,28,01,00,13.10
2012,08,28,01,01,13.10
2012,08,28,01,02,13.10
2012,08,28,01,03,13.10
2012,08,28,01,04,13.00
2012,08,28,01,05,13.00
2012,08,28,01,06,13.00
2012,08,28,01,07,13.00
2012,08,28,01,08,13.00
2012,08,28,01,09,13.00
2012,08,28,01,10,13.00
2012,08,28,01,11,13.00
2012,08,28,01,12,13.00
2012,08,28,01,13,13.00
2012,08,28,01,14,13.00
2012,08,28,01,15,13.00
2012,08,28,01,16,13.00
2012,08,28,01,17,13.00
2012,08,28,01,18,13.00
2012,08,28,01,19,13.10
2012,08,28,01,20,13.10
2012,08,28,01,21,13.10
2012,08,28,01,22,13.10
2012,08,28,01,23,13.10
2012,08,28,01,24,13.20
2012,08,28,01,25,13.20
2012,08,28,01,26,13.30
2012,08,28,01,27,13.30
2012,08,28,01,28,13.30
2012,08,28,01,29,13.40
2012,08,28,01,30,13.40
2012,08,28,01,31,13.40
2012,08,28,01,32,13.40
2012,08,28,01,33,13.40
2012,08,28,01,34,13.40
2012,08,28,01,35,13.40
2012,08,28,01,36,13.40
2012,08,28,01,37,13.40
2012,08,28,01,38,13.40
2012,08,28,01,39,13.40
2012,08,28,01,40,13.40
2012,08,28,01,41,13.30
2012,08,28,01,42,13.30
2012,08,28,01,43,13.30
2012,08,28,01,44,13.30
2012,08,28,01,45,13.30
2012,08,28,01,46,13.30
2012,08,28,01,47,13.30
2012,08,28,01,48,13.30
2012,08,28,01,49,13.30
2012,08,28,01,50,13.30
2012,08,28,01,51,13.40
2012,08,28,01,52,13.40
2012,08,28,01,53,13.40
2012,08,28,01,54,13.40
2012,08,28,01,55,13.40
2012,08,28,01,56,13.40
2012,08,28,01,57,13.40
2012,08,28,01,58,13.40
2012,08,28,01,59,13.40
2012,08,28,02,00,13.40
2012,08,28,02,01,13.40
2012,08,28,02,02,13.40
2012,08,28,02,03,13.40
2012,08,28,02,04,13.40
2012,08,28,02,05,13.40
2012,08,28,02,06,13.40
2012,08,28,02,07,13.50
2012,08,28,02,08,13.50
2012,08,28,02,09,13.50
2012,08,28,02,10,13.40
2012,08,28,02,11,13.40
2012,08,28,02,12,13.40
2012,08,28,02,13,13.50
2012,08,28,02,14,13.40
2012,08,28,02,15,13.40
2012,08,28,02,16,13.40
2012,08,28,02,17,13.40
2012,08,28,02,18,13.40
2012,08,28,02,19,13.50
2012,08,28,02,20,13.50
2012,08,28,02,21,13.50
2012,08,28,02,22,13.50
2012,08,28,02,23,13.50
2012,08,28,02,24,13.60
2012,08,28,02,25,13.60
2012,08,28,02,26,13.60
2012,08,28,02,27,13.60
2012,08,28,02,28,13.60
2012,08,28,02,29,13.60
2012,08,28,02,30,13.70
2012,08,28,02,31,13.70
2012,08,28,02,32,13.70
2012,08,28,02,33,13.70
2012,08,28,02,34,13.70
2012,08,28,02,35,13.70
2012,08,28,02,36,13.70
2012,08,28,02,37,13.70
2012,08,28,02,38,13.70
2012,08,28,02,39,13.70
2012,08,28,02,40,13.70
2012,08,28,02,41,13.70
2012,08,28,02,42,13.70
2012,08,28,02,43,13.70
2012,08,28,02,44,13.70
2012,08,28,02,45,13.80
2012,08,28,02,46,13.80
2012,08,28,02,47,13.80
2012,08,28,02,48,13.80
2012,08,28,02,49,13.80
2012,08,28,02,50,13.80
2012,08,28,02,51,13.80
2012,08,28,02,52,13.80
2012,08,28,02,53,13.80
2012,08,28,02,54,13.80
2012,08,28,02,55,13.80
2012,08,28,02,56,13.90
2012,08,28,02,57,13.90
2012,08,28,02,58,13.90
2012,08,28,02,59,13.90
2012,08,28,03,00,13.90
2012,08,28,03,01,13.90
2012,08,28,03,02,14.00
2012,08,28,03,03,14.00
2012,08,28,03,04,14.00
2012,08,28,03,05,14.00
2012,08,28,03,06,14.00
2012,08,28,03,07,14.00
2012,08,28,03,08,14.00
2012,08,28,03,09,14.00
2012,08,28,03,10,14.00
2012,08,28,03,11,14.00
2012,08,28,03,12,14.00
2012,08,28,03,13,14.00
2012,08,28,03,14,14.00
2012,08,28,03,15,14.00
2012,08,28,03,16,13.90
2012,08,28,03,17,13.90
2012,08,28,03,18,13.90
2012,08,28,03,19,13.90
2012,08,28,03,20,13.90
2012,08,28,03,21,13.90
2012,08,28,03,22,13.90
2012,08,28,03,23,13.90
2012,08,28,03,24,13.90
2012,08,28,03,25,13.90
2012,08,28,03,26,13.90
2012,08,28,03,27,13.90
2012,08,28,03,28,13.80
2012,08,28,03,29,13.80
2012,08,28,03,30,13.80
2012,08,28,03,31,13.80
2012,08,28,03,32,13.80
2012,08,28,03,33,13.80
2012,08,28,03,34,13.80
2012,08,28,03,35,13.70
2012,08,28,03,36,13.70
2012,08,28,03,37,13.70
2012,08,28,03,38,13.70
2012,08,28,03,39,13.70
2012,08,28,03,40,13.70
2012,08,28,03,41,13.70
2012,08,28,03,42,13.70
2012,08,28,03,43,13.70
2012,08,28,03,44,13.70
2012,08,28,03,45,13.70
2012,08,28,03,46,13.80
2012,08,28,03,47,13.80
2012,08,28,03,48,13.80
2012,08,28,03,49,13.80
2012,08,28,03,50,13.80
2012,08,28,03,51,13.80
2012,08,28,03,52,13.80
2012,08,28,03,53,13.80
2012,08,28,03,54,13.80
2012,08,28,03,55,13.80
2012,08,28,03,56,13.80
2012,08,28,03,57,13.80
2012,08,28,03,58,13.80
2012,08,28,03,59,13.80
2012,08,28,04,00,13.80
2012,08,28,04,01,13.80
2012,08,28,04,02,13.80
2012,08,28,04,03,13.80
2012,08,28,04,04,13.80
2012,08,28,04,05,13.80
2012,08,28,04,06,13.80
2012,08,28,04,07,13.80
2012,08,28,04,08,13.80
2012,08,28,04,09,13.80
2012,08,28,04,10,13.80
2012,08,28,04,11,13.80
2012,08,28,04,12,13.80
2012,08,28,04,13,13.80
2012,08,28,04,14,13.70
2012,08,28,04,15,13.70
2012,08,28,04,16,13.70
2012,08,28,04,17,13.70
2012,08,28,04,18,13.70
2012,08,28,04,19,13.80
2012,08,28,04,20,13.80
2012,08,28,04,21,13.80
2012,08,28,04,22,13.80
2012,08,28,04,23,13.80
2012,08,28,04,24,13.80
2012,08,28,04,25,13.80
2012,08,28,04,26,13.80
2012,08,28,04,27,13.80
2012,08,28,04,28,13.80
2012,08,28,04,29,13.80
2012,08,28,04,30,13.80
2012,08,28,04,31,13.80
2012,08,28,04,32,13.70
2012,08,28,04,33,13.70
2012,08,28,04,34,13.70
2012,08,28,04,35,13.70
2012,08,28,04,36,13.70
2012,08,28,04,37,13.70
2012,08,28,04,38,13.70
2012,08,28,04,39,13.70
2012,08,28,04,40,13.70
2012,08,28,04,41,13.70
2012,08,28,04,42,13.70
2012,08,28,04,43,13.70
2012,08,28,04,44,13.70
2012,08,28,04,45,13.70
2012,08,28,04,46,13.60
2012,08,28,04,47,13.60
2012,08,28,04,48,13.60
2012,08,28,04,49,13.60
2012,08,28,04,50,13.60
2012,08,28,04,51,13.60
2012,08,28,04,52,13.60
2012,08,28,04,53,13.60
2012,08,28,04,54,13.60
2012,08,28,04,55,13.60
2012,08,28,04,56,13.60
2012,08,28,04,57,13.50
2012,08,28,04,58,13.50
2012,08,28,04,59,13.50
2012,08,28,05,00,13.50
2012,08,28,05,01,13.50
2012,08,28,05,02,13.40
2012,08,28,05,03,13.40
2012,08,28,05,04,13.40
2012,08,28,05,05,13.40
2012,08,28,05,06,13.40
2012,08,28,05,07,13.40
2012,08,28,05,08,13.40
2012,08,28,05,09,13.40
2012,08,28,05,10,13.40
2012,08,28,05,11,13.30
2012,08,28,05,12,13.30
2012,08,28,05,13,13.30
2012,08,28,05,14,13.30
2012,08,28,05,15,13.30
2012,08,28,05,16,13.30
2012,08,28,05,17,13.30
2012,08,28,05,18,13.30
2012,08,28,05,19,13.30
2012,08,28,05,20,13.20
2012,08,28,05,21,13.20
2012,08,28,05,22,13.20
2012,08,28,05,23,13.20
2012,08,28,05,24,13.20
2012,08,28,05,25,13.20
2012,08,28,05,26,13.20
2012,08,28,05,27,13.20
2012,08,28,05,28,13.20
2012,08,28,05,29,13.20
2012,08,28,05,30,13.20
2012,08,28,05,31,13.20
2012,08,28,05,32,13.20
2012,08,28,05,33,13.20
2012,08,28,05,34,13.20
2012,08,28,05,35,13.20
2012,08,28,05,36,13.20
2012,08,28,05,37,13.20
2012,08,28,05,38,13.20
2012,08,28,05,39,13.20
2012,08,28,05,40,13.20
2012,08,28,05,41,13.20
2012,08,28,05,42,13.20
2012,08,28,05,43,13.20
2012,08,28,05,44,13.20
2012,08,28,05,45,13.20
2012,08,28,05,46,13.20
2012,08,28,05,47,13.20
2012,08,28,05,48,13.30
2012,08,28,05,49,13.30
2012,08,28,05,50,13.30
2012,08,28,05,51,13.30
2012,08,28,05,52,13.30
2012,08,28,05,53,13.30
2012,08,28,05,54,13.30
2012,08,28,05,55,13.30
2012,08,28,05,56,13.30
2012,08,28,05,57,13.30
2012,08,28,05,58,13.30
2012,08,28,05,59,13.30
2012,08,28,06,00,13.30
2012,08,28,06,01,13.30
2012,08,28,06,02,13.30
2012,08,28,06,03,13.30
2012,08,28,06,04,13.30
2012,08,28,06,05,13.30
2012,08,28,06,06,13.30
2012,08,28,06,07,13.30
2012,08,28,06,08,13.30
2012,08,28,06,09,13.30
2012,08,28,06,10,13.30
2012,08,28,06,11,13.30
2012,08,28,06,12,13.30
2012,08,28,06,13,13.30
2012,08,28,06,14,13.30
2012,08,28,06,15,13.30
2012,08,28,06,16,13.30
2012,08,28,06,17,13.30
2012,08,28,06,18,13.30
2012,08,28,06,19,13.30
2012,08,28,06,20,13.30
2012,08,28,06,21,13.30
2012,08,28,06,22,13.30
2012,08,28,06,23,13.30
2012,08,28,06,24,13.30
2012,08,28,06,25,13.30
2012,08,28,06,26,13.30
2012,08,28,06,27,13.20
2012,08,28,06,28,13.20
2012,08,28,06,29,13.20
2012,08,28,06,30,13.20
2012,08,28,06,31,13.20
2012,08,28,06,32,13.20
2012,08,28,06,33,13.20
2012,08,28,06,34,13.20
2012,08,28,06,35,13.20
2012,08,28,06,36,13.20
2012,08,28,06,37,13.20
2012,08,28,06,38,13.20
2012,08,28,06,39,13.20
2012,08,28,06,40,13.20
2012,08,28,06,41,13.30
2012,08,28,06,42,13.30
2012,08,28,06,43,13.30
2012,08,28,06,44,13.30
2012,08,28,06,45,13.30
2012,08,28,06,46,13.30
2012,08,28,06,47,13.30
2012,08,28,06,48,13.30
2012,08,28,06,49,13.30
2012,08,28,06,50,13.30
2012,08,28,06,51,13.30
2012,08,28,06,52,13.30
2012,08,28,06,53,13.30
2012,08,28,06,54,13.30
2012,08,28,06,55,13.30
2012,08,28,06,56,13.30
2012,08,28,06,57,13.30
2012,08,28,06,58,13.30
2012,08,28,06,59,13.30
2012,08,28,07,00,13.30
2012,08,28,07,01,13.30
2012,08,28,07,02,13.30
2012,08,28,07,03,13.30
2012,08,28,07,04,13.30
2012,08,28,07,05,13.30
2012,08,28,07,06,13.30
2012,08,28,07,07,13.30
2012,08,28,07,08,13.30
2012,08,28,07,09,13.30
2012,08,28,07,10,13.30
2012,08,28,07,11,13.30
2012,08,28,07,12,13.30
2012,08,28,07,13,13.30
2012,08,28,07,14,13.30
2012,08,28,07,15,13.30
2012,08,28,07,16,13.30
2012,08,28,07,17,13.30
2012,08,28,07,18,13.30
2012,08,28,07,19,13.30
2012,08,28,07,20,13.30
2012,08,28,07,21,13.30
2012,08,28,07,22,13.30
2012,08,28,07,23,13.30
2012,08,28,07,24,13.30
2012,08,28,07,25,13.30
2012,08,28,07,26,13.20
2012,08,28,07,27,13.20
2012,08,28,07,28,13.20
2012,08,28,07,29,13.10
2012,08,28,07,30,13.10
2012,08,28,07,31,13.10
2012,08,28,07,32,13.10
2012,08,28,07,33,13.10
2012,08,28,07,34,13.10
2012,08,28,07,35,13.10
2012,08,28,07,36,13.10
2012,08,28,07,37,13.10
2012,08,28,07,38,13.10
2012,08,28,07,39,13.10
2012,08,28,07,40,13.10
2012,08,28,07,41,13.10
2012,08,28,07,42,13.10
2012,08,28,07,43,13.10
2012,08,28,07,44,13.20
2012,08,28,07,45,13.20
2012,08,28,07,46,13.20
2012,08,28,07,47,13.20
2012,08,28,07,48,13.20
2012,08,28,07,49,13.20
2012,08,28,07,50,13.20
2012,08,28,07,51,13.20
2012,08,28,07,52,13.30
2012,08,28,07,53,13.30
2012,08,28,07,54,13.30
2012,08,28,07,55,13.30
2012,08,28,07,56,13.30
2012,08,28,07,57,13.30
2012,08,28,07,58,13.40
2012,08,28,07,59,13.40
2012,08,28,08,00,13.40
2012,08,28,08,01,13.40
2012,08,28,08,02,13.50
2012,08,28,08,03,13.50
2012,08,28,08,04,13.60
2012,08,28,08,05,13.60
2012,08,28,08,06,13.60
2012,08,28,08,07,13.60
2012,08,28,08,08,13.60
2012,08,28,08,09,13.70
2012,08,28,08,10,13.70
2012,08,28,08,11,13.70
2012,08,28,08,12,13.70
2012,08,28,08,13,13.70
2012,08,28,08,14,13.80
2012,08,28,08,15,13.80
2012,08,28,08,16,13.80
2012,08,28,08,17,13.80
2012,08,28,08,18,13.80
2012,08,28,08,19,13.90
2012,08,28,08,20,13.90
2012,08,28,08,21,13.90
2012,08,28,08,22,13.90
2012,08,28,08,23,14.00
2012,08,28,08,24,14.00
2012,08,28,08,25,14.10
2012,08,28,08,26,14.10
2012,08,28,08,27,14.20
2012,08,28,08,28,14.20
2012,08,28,08,29,14.20
2012,08,28,08,30,14.20
2012,08,28,08,31,14.30
2012,08,28,08,32,14.30
2012,08,28,08,33,14.30
2012,08,28,08,34,14.40
2012,08,28,08,35,14.40
2012,08,28,08,36,14.40
2012,08,28,08,37,14.40
2012,08,28,08,38,14.50
2012,08,28,08,39,14.50
2012,08,28,08,40,14.50
2012,08,28,08,41,14.60
2012,08,28,08,42,14.60
2012,08,28,08,43,14.60
2012,08,28,08,44,14.70
2012,08,28,08,45,14.70
2012,08,28,08,46,14.80
2012,08,28,08,47,14.80
2012,08,28,08,48,15.00
2012,08,28,08,49,15.00
2012,08,28,08,50,15.00
2012,08,28,08,51,15.00
2012,08,28,08,52,15.00
2012,08,28,08,53,15.00
2012,08,28,08,54,15.10
2012,08,28,08,55,15.10
2012,08,28,08,56,15.20
2012,08,28,08,57,15.30
2012,08,28,08,58,15.40
2012,08,28,08,59,15.40
2012,08,28,09,00,15.40
2012,08,28,09,01,15.40
2012,08,28,09,02,15.40
2012,08,28,09,03,15.50
2012,08,28,09,04,15.50
2012,08,28,09,05,15.60
2012,08,28,09,06,15.70
2012,08,28,09,07,15.70
2012,08,28,09,08,15.80
2012,08,28,09,09,15.80
2012,08,28,09,10,15.90
2012,08,28,09,11,15.90
2012,08,28,09,12,16.00
2012,08,28,09,13,16.00
2012,08,28,09,14,16.10
2012,08,28,09,15,16.20
2012,08,28,09,16,16.30
2012,08,28,09,17,16.30
2012,08,28,09,18,16.40
2012,08,28,09,19,16.50
2012,08,28,09,20,16.50
2012,08,28,09,21,16.60
2012,08,28,09,22,16.70
2012,08,28,09,23,16.80
2012,08,28,09,24,16.80
2012,08,28,09,25,16.90
2012,08,28,09,26,17.00
2012,08,28,09,27,17.10
2012,08,28,09,28,17.20
2012,08,28,09,29,17.20
2012,08,28,09,30,17.30
2012,08,28,09,31,17.30
2012,08,28,09,32,17.30
2012,08,28,09,33,17.30
2012,08,28,09,34,17.40
2012,08,28,09,35,17.40
2012,08,28,09,36,17.40
2012,08,28,09,37,17.40
2012,08,28,09,38,17.40
2012,08,28,09,39,17.50
2012,08,28,09,40,17.50
2012,08,28,09,41,17.50
2012,08,28,09,42,17.40
2012,08,28,09,43,17.40
2012,08,28,09,44,17.40
2012,08,28,09,45,17.30
2012,08,28,09,46,17.20
2012,08,28,09,47,17.20
2012,08,28,09,48,17.10
2012,08,28,09,49,17.10
2012,08,28,09,50,17.00
2012,08,28,09,51,16.90
2012,08,28,09,52,16.80
2012,08,28,09,53,16.80
2012,08,28,09,54,16.80
2012,08,28,09,55,16.80
2012,08,28,09,56,16.80
2012,08,28,09,57,16.70
2012,08,28,09,58,16.60
2012,08,28,09,59,16.60
2012,08,28,10,00,16.60
2012,08,28,10,01,16.60
2012,08,28,10,02,16.60
2012,08,28,10,03,16.60
2012,08,28,10,04,16.60
2012,08,28,10,05,16.60
2012,08,28,10,06,16.60
2012,08,28,10,07,16.60
2012,08,28,10,08,16.50
2012,08,28,10,09,16.40
2012,08,28,10,10,16.40
2012,08,28,10,11,16.30
2012,08,28,10,12,16.30
2012,08,28,10,13,16.20
2012,08,28,10,14,16.20
2012,08,28,10,15,16.20
2012,08,28,10,16,16.10
2012,08,28,10,17,16.10
2012,08,28,10,18,16.00
2012,08,28,10,19,16.00
2012,08,28,10,20,16.00
2012,08,28,10,21,15.90
2012,08,28,10,22,15.90
2012,08,28,10,23,15.80
2012,08,28,10,24,15.80
2012,08,28,10,25,15.90
2012,08,28,10,26,15.90
2012,08,28,10,27,15.90
2012,08,28,10,28,15.80
2012,08,28,10,29,15.90
2012,08,28,10,30,15.90
2012,08,28,10,31,16.00
2012,08,28,10,32,16.00
2012,08,28,10,33,15.90
2012,08,28,10,34,15.90
2012,08,28,10,35,15.80
2012,08,28,10,36,15.80
2012,08,28,10,37,15.80
2012,08,28,10,38,15.80
2012,08,28,10,39,15.80
2012,08,28,10,40,15.80
2012,08,28,10,41,15.90
2012,08,28,10,42,15.90
2012,08,28,10,43,15.90
2012,08,28,10,44,16.00
2012,08,28,10,45,16.00
2012,08,28,10,46,16.00
2012,08,28,10,47,15.90
2012,08,28,10,48,15.90
2012,08,28,10,49,15.80
2012,08,28,10,50,15.90
2012,08,28,10,51,15.80
2012,08,28,10,52,15.90
2012,08,28,10,53,15.90
2012,08,28,10,54,15.90
2012,08,28,10,55,16.00
2012,08,28,10,56,16.00
2012,08,28,10,57,16.10
2012,08,28,10,58,16.10
2012,08,28,10,59,16.20
2012,08,28,11,00,16.20
2012,08,28,11,01,16.20
2012,08,28,11,02,16.30
2012,08,28,11,03,16.30
2012,08,28,11,04,16.50
2012,08,28,11,05,16.60
2012,08,28,11,06,16.70
2012,08,28,11,07,16.80
2012,08,28,11,08,16.80
2012,08,28,11,09,16.90
2012,08,28,11,10,16.90
2012,08,28,11,11,17.00
2012,08,28,11,12,17.00
2012,08,28,11,13,17.10
2012,08,28,11,14,17.20
2012,08,28,11,15,17.30
2012,08,28,11,16,17.50
2012,08,28,11,17,17.60
2012,08,28,11,18,17.70
2012,08,28,11,19,17.70
2012,08,28,11,20,17.70
2012,08,28,11,21,17.70
2012,08,28,11,22,17.70
2012,08,28,11,23,17.80
2012,08,28,11,24,17.90
2012,08,28,11,25,18.00
2012,08,28,11,26,18.20
2012,08,28,11,27,18.30
2012,08,28,11,28,18.30
2012,08,28,11,29,18.50
2012,08,28,11,30,18.60
2012,08,28,11,31,18.60
2012,08,28,11,32,18.70
2012,08,28,11,33,18.80
2012,08,28,11,34,18.90
2012,08,28,11,35,19.00
2012,08,28,11,36,19.20
2012,08,28,11,37,19.30
2012,08,28,11,38,19.30
2012,08,28,11,39,19.40
2012,08,28,11,40,19.40
2012,08,28,11,41,19.40
2012,08,28,11,42,19.50
2012,08,28,11,43,19.50
2012,08,28,11,44,19.50
2012,08,28,11,45,19.50
2012,08,28,11,46,19.40
2012,08,28,11,47,19.50
2012,08,28,11,48,19.60
2012,08,28,11,49,19.60
2012,08,28,11,50,19.70
2012,08,28,11,51,19.70
2012,08,28,11,52,19.80
2012,08,28,11,53,19.80
2012,08,28,11,54,19.90
2012,08,28,11,55,19.90
2012,08,28,11,56,20.00
2012,08,28,11,57,20.10
2012,08,28,11,58,20.20
2012,08,28,11,59,20.30
2012,08,28,12,00,20.30
2012,08,28,12,01,20.30
2012,08,28,12,02,20.20
2012,08,28,12,03,20.20
2012,08,28,12,04,20.20
2012,08,28,12,05,20.20
2012,08,28,12,06,20.10
2012,08,28,12,07,20.00
2012,08,28,12,08,19.90
2012,08,28,12,09,19.90
2012,08,28,12,10,19.80
2012,08,28,12,11,19.80
2012,08,28,12,12,19.80
2012,08,28,12,13,19.80
2012,08,28,12,14,19.80
2012,08,28,12,15,19.80
2012,08,28,12,16,19.80
2012,08,28,12,17,19.80
2012,08,28,12,18,19.80
2012,08,28,12,19,19.80
2012,08,28,12,20,19.80
2012,08,28,12,21,19.70
2012,08,28,12,22,19.60
2012,08,28,12,23,19.50
2012,08,28,12,24,19.50
2012,08,28,12,25,19.40
2012,08,28,12,26,19.40
2012,08,28,12,27,19.30
2012,08,28,12,28,19.30
2012,08,28,12,29,19.30
2012,08,28,12,30,19.40
2012,08,28,12,31,19.50
2012,08,28,12,32,19.60
2012,08,28,12,33,19.80
2012,08,28,12,34,19.90
2012,08,28,12,35,20.00
2012,08,28,12,36,20.00
2012,08,28,12,37,20.10
2012,08,28,12,38,20.10
2012,08,28,12,39,20.20
2012,08,28,12,40,20.20
2012,08,28,12,41,20.20
2012,08,28,12,42,20.10
2012,08,28,12,43,20.00
2012,08,28,12,44,19.90
2012,08,28,12,45,19.90
2012,08,28,12,46,19.80
2012,08,28,12,47,19.80
2012,08,28,12,48,19.70
2012,08,28,12,49,19.70
2012,08,28,12,50,19.70
2012,08,28,12,51,19.70
2012,08,28,12,52,19.70
2012,08,28,12,53,19.70
2012,08,28,12,54,19.70
2012,08,28,12,55,19.70
2012,08,28,12,56,19.80
2012,08,28,12,57,19.70
2012,08,28,12,58,19.70
2012,08,28,12,59,19.60
2012,08,28,13,00,19.60
2012,08,28,13,01,19.60
2012,08,28,13,02,19.60
2012,08,28,13,03,19.60
2012,08,28,13,04,19.60
2012,08,28,13,05,19.60
2012,08,28,13,06,19.60
2012,08,28,13,07,19.70
2012,08,28,13,08,19.60
2012,08,28,13,09,19.60
2012,08,28,13,10,19.60
2012,08,28,13,11,19.70
2012,08,28,13,12,19.70
2012,08,28,13,13,19.70
2012,08,28,13,14,19.60
2012,08,28,13,15,19.60
2012,08,28,13,16,19.50
2012,08,28,13,17,19.50
2012,08,28,13,18,19.50
2012,08,28,13,19,19.40
2012,08,28,13,20,19.40
2012,08,28,13,21,19.40
2012,08,28,13,22,19.30
2012,08,28,13,23,19.30
2012,08,28,13,24,19.30
2012,08,28,13,25,19.30
2012,08,28,13,26,19.20
2012,08,28,13,27,19.20
2012,08,28,13,28,19.20
2012,08,28,13,29,19.20
2012,08,28,13,30,19.20
2012,08,28,13,31,19.20
2012,08,28,13,32,19.30
2012,08,28,13,33,19.40
2012,08,28,13,34,19.40
2012,08,28,13,35,19.40
2012,08,28,13,36,19.30
2012,08,28,13,37,19.20
2012,08,28,13,38,19.20
2012,08,28,13,39,19.20
2012,08,28,13,40,19.10
2012,08,28,13,41,19.10
2012,08,28,13,42,19.10
2012,08,28,13,43,19.10
2012,08,28,13,44,19.10
2012,08,28,13,45,19.00
2012,08,28,13,46,18.90
2012,08,28,13,47,18.80
2012,08,28,13,48,18.80
2012,08,28,13,49,18.70
2012,08,28,13,50,18.70
2012,08,28,13,51,18.70
2012,08,28,13,52,18.60
2012,08,28,13,53,18.60
2012,08,28,13,54,18.50
2012,08,28,13,55,18.50
2012,08,28,13,56,18.40
2012,08,28,13,57,18.40
2012,08,28,13,58,18.40
2012,08,28,13,59,18.40
2012,08,28,14,00,18.50
2012,08,28,14,01,18.40
2012,08,28,14,02,18.40
2012,08,28,14,03,18.30
2012,08,28,14,04,18.30
2012,08,28,14,05,18.30
2012,08,28,14,06,18.30
2012,08,28,14,07,18.30
2012,08,28,14,08,18.30
2012,08,28,14,09,18.30
2012,08,28,14,10,18.30
2012,08,28,14,11,18.30
2012,08,28,14,12,18.40
2012,08,28,14,13,18.40
2012,08,28,14,14,18.40
2012,08,28,14,15,18.40
2012,08,28,14,16,18.40
2012,08,28,14,17,18.30
2012,08,28,14,18,18.30
2012,08,28,14,19,18.30
2012,08,28,14,20,18.20
2012,08,28,14,21,18.20
2012,08,28,14,22,18.20
2012,08,28,14,23,18.20
2012,08,28,14,24,18.10
2012,08,28,14,25,18.10
2012,08,28,14,26,18.00
2012,08,28,14,27,17.90
2012,08,28,14,28,17.90
2012,08,28,14,29,17.90
2012,08,28,14,30,17.80
2012,08,28,14,31,17.80
2012,08,28,14,32,17.80
2012,08,28,14,33,17.80
2012,08,28,14,34,17.80
2012,08,28,14,35,17.80
2012,08,28,14,36,17.80
2012,08,28,14,37,17.80
2012,08,28,14,38,17.80
2012,08,28,14,39,17.80
2012,08,28,14,40,17.80
2012,08,28,14,41,17.80
2012,08,28,14,42,17.80
2012,08,28,14,43,17.90
2012,08,28,14,44,17.90
2012,08,28,14,45,17.90
2012,08,28,14,46,17.90
2012,08,28,14,47,18.00
2012,08,28,14,48,18.00
2012,08,28,14,49,18.00
2012,08,28,14,50,18.00
2012,08,28,14,51,18.00
2012,08,28,14,52,18.00
2012,08,28,14,53,18.10
2012,08,28,14,54,18.10
2012,08,28,14,55,18.10
2012,08,28,14,56,18.10
2012,08,28,14,57,18.10
2012,08,28,14,58,18.20
2012,08,28,14,59,18.20
2012,08,28,15,00,18.20
2012,08,28,15,01,18.20
2012,08,28,15,02,18.20
2012,08,28,15,03,18.20
2012,08,28,15,04,18.20
2012,08,28,15,05,18.20
2012,08,28,15,06,18.20
2012,08,28,15,07,18.20
2012,08,28,15,08,18.20
2012,08,28,15,09,18.20
2012,08,28,15,10,18.30
2012,08,28,15,11,18.30
2012,08,28,15,12,18.30
2012,08,28,15,13,18.40
2012,08,28,15,14,18.40
2012,08,28,15,15,18.40
2012,08,28,15,16,18.40
2012,08,28,15,17,18.40
2012,08,28,15,18,18.40
2012,08,28,15,19,18.40
2012,08,28,15,20,18.40
2012,08,28,15,21,18.40
2012,08,28,15,22,18.40
2012,08,28,15,23,18.40
2012,08,28,15,24,18.40
2012,08,28,15,25,18.40
2012,08,28,15,26,18.50
2012,08,28,15,27,18.50
2012,08,28,15,28,18.60
2012,08,28,15,29,18.60
2012,08,28,15,30,18.60
2012,08,28,15,31,18.60
2012,08,28,15,32,18.50
2012,08,28,15,33,18.50
2012,08,28,15,34,18.40
2012,08,28,15,35,18.30
2012,08,28,15,36,18.30
2012,08,28,15,37,18.30
2012,08,28,15,38,18.30
2012,08,28,15,39,18.20
2012,08,28,15,40,18.20
2012,08,28,15,41,18.20
2012,08,28,15,42,18.20
2012,08,28,15,43,18.10
2012,08,28,15,44,18.10
2012,08,28,15,45,18.10
2012,08,28,15,46,18.10
2012,08,28,15,47,18.00
2012,08,28,15,48,18.00
2012,08,28,15,49,18.00
2012,08,28,15,50,18.00
2012,08,28,15,51,18.00
2012,08,28,15,52,18.00
2012,08,28,15,53,18.00
2012,08,28,15,54,18.00
2012,08,28,15,55,18.00
2012,08,28,15,56,18.00
2012,08,28,15,57,18.10
2012,08,28,15,58,18.10
2012,08,28,15,59,18.10
2012,08,28,16,00,18.10
2012,08,28,16,01,18.20
2012,08,28,16,02,18.20
2012,08,28,16,03,18.20
2012,08,28,16,04,18.20
2012,08,28,16,05,18.20
2012,08,28,16,06,18.20
2012,08,28,16,07,18.20
2012,08,28,16,08,18.20
2012,08,28,16,09,18.20
2012,08,28,16,10,18.20
2012,08,28,16,11,18.20
2012,08,28,16,12,18.20
2012,08,28,16,13,18.20
2012,08,28,16,14,18.20
2012,08,28,16,15,18.20
2012,08,28,16,16,18.20
2012,08,28,16,17,18.20
2012,08,28,16,18,18.20
2012,08,28,16,19,18.20
2012,08,28,16,20,18.10
2012,08,28,16,21,18.10
2012,08,28,16,22,18.10
2012,08,28,16,23,18.10
2012,08,28,16,24,18.10
2012,08,28,16,25,18.00
2012,08,28,16,26,18.00
2012,08,28,16,27,17.90
2012,08,28,16,28,17.90
2012,08,28,16,29,17.80
2012,08,28,16,30,17.80
2012,08,28,16,31,17.70
2012,08,28,16,32,17.70
2012,08,28,16,33,17.70
2012,08,28,16,34,17.70
2012,08,28,16,35,17.70
2012,08,28,16,36,17.70
2012,08,28,16,37,17.70
2012,08,28,16,38,17.70
2012,08,28,16,39,17.70
2012,08,28,16,40,17.70
2012,08,28,16,41,17.80
2012,08,28,16,42,17.80
2012,08,28,16,43,17.80
2012,08,28,16,44,17.80
2012,08,28,16,45,17.90
2012,08,28,16,46,17.90
2012,08,28,16,47,17.90
2012,08,28,16,48,18.00
2012,08,28,16,49,18.00
2012,08,28,16,50,18.10
2012,08,28,16,51,18.10
2012,08,28,16,52,18.10
2012,08,28,16,53,18.20
2012,08,28,16,54,18.20
2012,08,28,16,55,18.20
2012,08,28,16,56,18.30
2012,08,28,16,57,18.30
2012,08,28,16,58,18.30
2012,08,28,16,59,18.30
2012,08,28,17,00,18.30
2012,08,28,17,01,18.30
2012,08,28,17,02,18.40
2012,08,28,17,03,18.40
2012,08,28,17,04,18.40
2012,08,28,17,05,18.40
2012,08,28,17,06,18.50
2012,08,28,17,07,18.50
2012,08,28,17,08,18.50
2012,08,28,17,09,18.50
2012,08,28,17,10,18.50
2012,08,28,17,11,18.50
2012,08,28,17,12,18.50
2012,08,28,17,13,18.50
2012,08,28,17,14,18.50
2012,08,28,17,15,18.50
2012,08,28,17,16,18.50
2012,08,28,17,17,18.50
2012,08,28,17,18,18.40
2012,08,28,17,19,18.40